| time (UTC) | temp F | wind direction | speed MPH | gust MPH | rain 1hr in | rain 24hr in | rain mn in | humidity % | barometer mb |
| 20260505201558 | 79 | 132 | 2.0 | 8.0 | 0.00 | 0.00 | 0.00 | 51 | 1017.2 |
| 20260505200055 | 78 | 259 | 2.0 | 5.0 | 0.00 | 0.00 | 0.00 | 52 | 1017.6 |
| 20260505194607 | 78 | 116 | 2.0 | 7.0 | 0.00 | 0.00 | 0.00 | 50 | 1017.7 |
| 20260505193054 | 78 | 126 | 3.0 | 7.0 | 0.00 | 0.00 | 0.00 | 51 | 1017.7 |
| 20260505191553 | 77 | 138 | 2.0 | 7.0 | 0.00 | 0.00 | 0.00 | 50 | 1017.9 |
| 20260505190056 | 78 | 128 | 2.0 | 8.0 | 0.00 | 0.00 | 0.00 | 49 | 1018.1 |
| 20260505184553 | 78 | 134 | 2.0 | 7.0 | 0.00 | 0.00 | 0.00 | 51 | 1018.2 |
| 20260505183053 | 79 | 66 | 1.0 | 4.0 | 0.00 | 0.00 | 0.00 | 49 | 1018.2 |
| 20260505181557 | 79 | 229 | 2.0 | 7.0 | 0.00 | 0.00 | 0.00 | 50 | 1018.2 |
| 20260505180058 | 79 | 132 | 1.0 | 6.0 | 0.00 | 0.00 | 0.00 | 48 | 1018.2 |
| 20260505174557 | 77 | 107 | 1.0 | 8.0 | 0.00 | 0.00 | 0.00 | 51 | 1018.4 |
| 20260505173049 | 77 | 279 | 2.0 | 9.0 | 0.00 | 0.00 | 0.00 | 50 | 1018.6 |
| 20260505171554 | 78 | 147 | 2.0 | 7.0 | 0.00 | 0.00 | 0.00 | 50 | 1018.7 |
| 20260505170053 | 78 | 268 | 2.0 | 13.0 | 0.00 | 0.00 | 0.00 | 51 | 1018.6 |
| 20260505164615 | 77 | 103 | 1.0 | 4.0 | 0.00 | 0.00 | 0.00 | 52 | 1018.7 |
| 20260505163101 | 76 | 92 | 2.0 | 6.0 | 0.00 | 0.00 | 0.00 | 53 | 1018.7 |
| 20260505161612 | 76 | 136 | 2.0 | 4.0 | 0.00 | 0.00 | 0.00 | 54 | 1019.1 |
| 20260505153053 | 74 | 270 | 1.0 | 6.0 | 0.00 | 0.00 | 0.00 | 57 | 1019.3 |
| 20260505151555 | 74 | 144 | 1.0 | 7.0 | 0.00 | 0.00 | 0.00 | 59 | 1019.2 |
| 20260505130109 | 66 | 271 | 0.0 | 2.0 | 0.00 | 0.00 | 0.00 | 80 | 1018.7 |
| 20260505124602 | 62 | 270 | 0.0 | 2.0 | 0.00 | 0.00 | 0.00 | 94 | 1018.6 |
| 20260505123053 | 59 | 0 | 0.0 | 1.0 | 0.00 | 0.00 | 0.00 | 96 | 1018.5 |
| 20260505121552 | 56 | 0 | 0.0 | 0.0 | 0.00 | 0.00 | 0.00 | 96 | 1018.6 |
| 20260505120107 | 53 | 0 | 0.0 | 0.0 | 0.00 | 0.00 | 0.00 | 95 | 1018.4 |
| 20260505114553 | 50 | 0 | 0.0 | 0.0 | 0.00 | 0.00 | 0.00 | 94 | 1018.3 |
| 20260505113055 | 49 | 0 | 0.0 | 0.0 | 0.00 | 0.00 | 0.00 | 94 | 1018.2 |
| 20260505111552 | 49 | 0 | 0.0 | 0.0 | 0.00 | 0.00 | 0.00 | 94 | 1017.9 |
| 20260505110106 | 48 | 0 | 0.0 | 0.0 | 0.00 | 0.00 | 0.00 | 94 | 1017.8 |
| 20260505101553 | 48 | 0 | 0.0 | 0.0 | 0.00 | 0.00 | 0.00 | 93 | 1017.4 |
| 20260505100049 | 48 | 0 | 0.0 | 0.0 | 0.00 | 0.00 | 0.00 | 93 | 1017.3 |
| 20260505094555 | 48 | 0 | 0.0 | 0.0 | 0.00 | 0.00 | 0.00 | 93 | 1017.1 |
| 20260505093052 | 48 | 0 | 0.0 | 0.0 | 0.00 | 0.00 | 0.00 | 93 | 1017.2 |
| 20260505091553 | 49 | 0 | 0.0 | 0.0 | 0.00 | 0.00 | 0.00 | 93 | 1017.0 |
| 20260505090100 | 49 | 0 | 0.0 | 0.0 | 0.00 | 0.00 | 0.00 | 93 | 1017.0 |
| 20260505084552 | 49 | 0 | 0.0 | 0.0 | 0.00 | 0.00 | 0.00 | 93 | 1016.7 |
| 20260505083054 | 49 | 0 | 0.0 | 0.0 | 0.00 | 0.00 | 0.00 | 93 | 1016.7 |
| 20260505081608 | 49 | 0 | 0.0 | 0.0 | 0.00 | 0.00 | 0.00 | 93 | 1016.7 |
| 20260505080104 | 50 | 0 | 0.0 | 0.0 | 0.00 | 0.00 | 0.00 | 92 | 1016.7 |
| 20260505074553 | 50 | 0 | 0.0 | 0.0 | 0.00 | 0.00 | 0.00 | 93 | 1016.7 |
| 20260505073057 | 50 | 0 | 0.0 | 0.0 | 0.00 | 0.00 | 0.00 | 92 | 1016.8 |
| 20260505071556 | 51 | 0 | 0.0 | 0.0 | 0.00 | 0.00 | 0.00 | 92 | 1016.7 |
| 20260505070056 | 51 | 0 | 0.0 | 0.0 | 0.00 | 0.00 | 0.00 | 92 | 1016.8 |
| 20260505064556 | 51 | 0 | 0.0 | 0.0 | 0.00 | 0.00 | 0.00 | 92 | 1016.7 |
| 20260505063102 | 52 | 0 | 0.0 | 0.0 | 0.00 | 0.00 | 0.00 | 92 | 1016.7 |
| 20260505061600 | 52 | 0 | 0.0 | 0.0 | 0.00 | 0.00 | 0.00 | 91 | 1017.0 |
| 20260505060055 | 52 | 0 | 0.0 | 0.0 | 0.00 | 0.00 | 0.00 | 91 | 1017.1 |
| 20260505054557 | 52 | 0 | 0.0 | 0.0 | 0.00 | 0.00 | 0.00 | 90 | 1017.3 |
| 20260505053105 | 53 | 0 | 0.0 | 0.0 | 0.00 | 0.00 | 0.00 | 90 | 1017.5 |
| 20260505051556 | 53 | 0 | 0.0 | 0.0 | 0.00 | 0.00 | 0.00 | 89 | 1017.7 |
| 20260505041554 | 54 | 0 | 0.0 | 0.0 | 0.00 | 0.00 | 0.00 | 87 | 1017.8 |
| 20260505040106 | 54 | 0 | 0.0 | 0.0 | 0.00 | 0.00 | 0.00 | 86 | 1017.7 |
| 20260505034554 | 55 | 0 | 0.0 | 0.0 | 0.00 | 0.00 | 0.00 | 85 | 1017.8 |
| 20260505033052 | 56 | 0 | 0.0 | 0.0 | 0.00 | 0.00 | 0.00 | 84 | 1017.8 |
| 20260505031558 | 56 | 0 | 0.0 | 0.0 | 0.00 | 0.00 | 0.00 | 82 | 1017.8 |
| 20260505030103 | 57 | 0 | 0.0 | 0.0 | 0.00 | 0.00 | 0.00 | 80 | 1017.8 |
| 20260505024548 | 58 | 0 | 0.0 | 0.0 | 0.00 | 0.00 | 0.00 | 78 | 1017.8 |
| 20260505023057 | 59 | 0 | 0.0 | 0.0 | 0.00 | 0.00 | 0.00 | 76 | 1017.9 |
| 20260505021559 | 60 | 0 | 0.0 | 3.0 | 0.00 | 0.00 | 0.00 | 76 | 1018.0 |
| 20260505020058 | 60 | 0 | 0.0 | 0.0 | 0.00 | 0.00 | 0.00 | 74 | 1017.9 |
| 20260505014555 | 61 | 0 | 0.0 | 0.0 | 0.00 | 0.00 | 0.00 | 73 | 1017.7 |
| 20260505013053 | 62 | 0 | 0.0 | 0.0 | 0.00 | 0.00 | 0.00 | 71 | 1017.6 |
| 20260505011557 | 62 | 0 | 0.0 | 0.0 | 0.00 | 0.00 | 0.00 | 71 | 1017.3 |
| 20260505010058 | 63 | 0 | 0.0 | 1.0 | 0.00 | 0.00 | 0.00 | 68 | 1017.3 |
| 20260505004553 | 64 | 290 | 0.0 | 2.0 | 0.00 | 0.00 | 0.00 | 67 | 1017.2 |
| 20260505003051 | 65 | 210 | 0.0 | 1.0 | 0.00 | 0.00 | 0.00 | 65 | 1017.1 |
| 20260505001553 | 66 | 0 | 0.0 | 4.0 | 0.00 | 0.00 | 0.00 | 62 | 1017.0 |
| 20260504234555 | 68 | 0 | 1.0 | 6.0 | 0.00 | 0.00 | 0.00 | 58 | 1016.8 |
| 20260504233054 | 69 | 224 | 3.0 | 9.0 | 0.00 | 0.00 | 0.00 | 57 | 1016.8 |
| 20260504231551 | 70 | 190 | 1.0 | 4.0 | 0.00 | 0.00 | 0.00 | 56 | 1016.8 |
| 20260504230051 | 71 | 32 | 2.0 | 6.0 | 0.00 | 0.00 | 0.00 | 53 | 1016.7 |
| 20260504224551 | 72 | 160 | 2.0 | 7.0 | 0.00 | 0.00 | 0.00 | 54 | 1016.6 |
| 20260504223056 | 73 | 132 | 1.0 | 7.0 | 0.00 | 0.00 | 0.00 | 53 | 1016.5 |
| 20260504221553 | 74 | 112 | 2.0 | 5.0 | 0.00 | 0.00 | 0.00 | 52 | 1016.7 |
| 20260504220114 | 74 | 265 | 2.0 | 10.0 | 0.00 | 0.00 | 0.00 | 49 | 1016.7 |
| 20260504214553 | 75 | 134 | 2.0 | 4.0 | 0.00 | 0.00 | 0.00 | 49 | 1016.6 |
| 20260504213100 | 75 | 120 | 2.0 | 8.0 | 0.00 | 0.00 | 0.00 | 45 | 1016.7 |
| 20260504211556 | 76 | 135 | 2.0 | 8.0 | 0.00 | 0.00 | 0.00 | 44 | 1016.7 |
| 20260504210054 | 76 | 220 | 1.0 | 5.0 | 0.00 | 0.00 | 0.00 | 44 | 1016.8 |
| 20260504204553 | 76 | 113 | 2.0 | 5.0 | 0.00 | 0.00 | 0.00 | 44 | 1016.8 |
| 20260504203055 | 76 | 106 | 1.0 | 6.0 | 0.00 | 0.00 | 0.00 | 45 | 1016.8 |